THORAD DELTA 1 DEB, 8160

Orbit data source: Space-Track

THORAD DELTA 1 DEB, 8160 is space debris in SSO originally from a launch on Fri, 15 Nov 1974 UTC launched from the Air Force Western Test Range (AFWTR). Debris objects in space refer to the collection of defunct objects orbiting the Earth. Examples of debris include non-operational satellites, rocket bodies, and fragments generated from explosions, collisions, or faulty payload assembly.

Loading next visibility...
Identifier
8160, 1974-089AA
Orbit
SSO
Country
Flag of USUS
Related business
Manufacturer
Unknown
Mission
Spacecraft
Bus & Motor
Unknown
Mass
Unknown
Launch date (UTC)
1974-11-15 (51 years ago)
Launch vehicle
Unknown
Launch site
Air Force Western Test Range (AFWTR)
Object type
Payload
Rocket body
Debris
Shape & HBR
Unknown
Radar Cross Section
Small (<0.1 m²)

Expand to show TLE details & history
Last TLE update: 10 hours ago

TLE from 10 hours ago
0 THORAD DELTA 1 DEB
1 08160U 74089AA  25242.88218184  .00000079  00000-0  66700-3 0  9996
2 08160 101.7870  11.6303 0145585 292.6208 195.0181 12.63515561341190
Epoch: 2025-08-30T21:10Z
TLE epoch observation values (Epoch: 2025-08-30T21:10:20.51Z)
Latitude
51.31627°
Longitude
-90.23362°
Altitude
1,526.126 km
Speed
7.057 km/s
True Right ascension
13h 46m 38s
True Declination
51° 09' 53"
Sunlit
Object was in daylight at epoch
Visualization orbit readout
Latitude
Unknown
Longitude
Unknown
Altitude
Unknown
Speed
Unknown
Apparent Right ascension
Unknown
Apparent Declination
Unknown
Sunlit
N/A
Visualization observer readout
Local Sidereal Time
22:58:54
Azimuth
Unknown
Elevation
Unknown
Doppler factor
Unknown
Orbital elements
Apogee altitude
1,519.323 km
Perigee altitude
1,292.673 km
Semi-major axis
7,784.135 km
Eccentricity
0.01456
Inclination
101.787°
RAAN
11.6303°
Arg. of periapsis
292.6208°
True anomaly
194.59328°
Mean anomaly
195.0181°
Eccentric anomaly
194.80495°
Mean motion
3.1603 °/min
Orbital period
113.91 mins
BSTAR
0.000667
Loading maneuver chart data...
Computing Atmospheric mass density...
Loading historical data...
Loading historical data...
Loading historical data...
Loading historical data...
Loading historical data...
Loading historical data...
Loading historical data...

Documentation

Showing up to 5 results
|